OPS 4682 DEB, 1316

Orbit data source: Space-Track

OPS 4682 DEB, 1316 is space debris in LEO originally from a launch on Sat, 03 Apr 1965 UTC launched from the Air Force Western Test Range (AFWTR). Debris objects in space refer to the collection of defunct objects orbiting the Earth. Examples of debris include non-operational satellites, rocket bodies, and fragments generated from explosions, collisions, or faulty payload assembly.

Loading next visibility...
Identifier
1316, 1965-027C
Orbit
LEO
Country
Flag of USUS
Related business
Manufacturer
Unknown
Mission
Spacecraft
Bus & Motor
Unknown
Mass
7 kg wet, 7 kg dry
Launch date (UTC)
1965-04-03 (61 years ago)
Launch vehicle
Unknown
Launch site
Air Force Western Test Range (AFWTR)
Object type
Payload
Rocket body
Debris
Shape & HBR
HALF CYL, 1.0 m
Radar Cross Section
Medium (>0.1 m² and <1 m²)

Expand to show TLE details & history
Last TLE update: 11 hours ago

TLE from 11 hours ago
0 OPS 4682 DEB
1 01316U 65027C   26237.86280562  .00000584  00000-0  13754-2 0  9997
2 01316  90.2663  29.2657 0032307 351.1828   8.8735 13.22607430928214
Epoch: 2026-08-25T20:42Z
TLE epoch observation values (Epoch: 2026-08-25T20:42:26.405Z)
Latitude
-0.00009°
Longitude
104.53162°
Altitude
1,153.578 km
Speed
7.288 km/s
True Right ascension
01h 57m 03s
True Declination
0° 00' 00"
Sunlit
Object was in full shadow at epoch
Visualization orbit readout
Latitude
Unknown
Longitude
Unknown
Altitude
Unknown
Speed
Unknown
Apparent Right ascension
Unknown
Apparent Declination
Unknown
Sunlit
N/A
Visualization observer readout
Local Sidereal Time
22:39:45
Azimuth
Unknown
Elevation
Unknown
Doppler factor
Unknown
Orbital elements
Apogee altitude
1,196.259 km
Perigee altitude
1,147.475 km
Semi-major axis
7,550.004 km
Eccentricity
0.00323
Inclination
90.2663°
RAAN
29.2657°
Arg. of periapsis
351.1828°
True anomaly
8.93084°
Mean anomaly
8.8735°
Eccentric anomaly
8.90214°
Mean motion
3.30843 °/min
Orbital period
108.81 mins
BSTAR
0.0013754
Loading maneuver chart data...
Computing Atmospheric mass density...
Loading historical data...
Loading historical data...
Loading historical data...
Loading historical data...
Loading historical data...
Loading historical data...
Loading historical data...

Documentation

Showing up to 5 results
|